This is the latest recevied weather packets stored in our database for station/object KE0TNI-13. If no packets are shown the sender has not sent any weather packets the latest 10 day(s).
| Time | Temp. | Humidity | Pressure | Rain* | Wind** | Luminosity | Snow |
|---|---|---|---|---|---|---|---|
| 1777649088 | 1.11° C | 79% | 1023.1 hPa | 0 mm | - | 30 W/m² | - |
| 1777648785 | 0° C | 82% | 1023.1 hPa | 0 mm | - | 24 W/m² | - |
| 1777648482 | 0° C | 82% | 1023 hPa | 0 mm | - | 24 W/m² | - |
| 1777648178 | 0.56° C | 81% | 1023 hPa | 0 mm | - | 23 W/m² | - |
| 1777647874 | 0.56° C | 82% | 1023.2 hPa | 0 mm | - | 25 W/m² | - |
| 1777647571 | 0.56° C | 82% | 1023 hPa | 0 mm | - | 27 W/m² | - |
| 1777647267 | 0.56° C | 81% | 1023.2 hPa | 0 mm | - | 23 W/m² | - |
| 1777646965 | 0.56° C | 80% | 1023.2 hPa | 0 mm | - | 21 W/m² | - |
| 1777646660 | 0.56° C | 81% | 1023.1 hPa | 0 mm | - | 22 W/m² | - |
| 1777646356 | 0.56° C | 85% | 1023.1 hPa | 0 mm | - | 23 W/m² | - |
| 1777646053 | 0° C | 87% | 1023 hPa | 0 mm | - | 21 W/m² | - |
| 1777645749 | -0.56° C | 88% | 1022.8 hPa | 0 mm | - | 18 W/m² | - |
| 1777645447 | -1.11° C | 88% | 1023.1 hPa | 0 mm | - | 15 W/m² | - |
| 1777645143 | -1.67° C | 89% | 1023 hPa | 0 mm | - | 13 W/m² | - |
| 1777644839 | -2.22° C | 90% | 1023 hPa | 0 mm | - | 13 W/m² | - |
| 1777644537 | -2.22° C | 91% | 1022.7 hPa | 0 mm | - | 12 W/m² | - |
| 1777644233 | -2.78° C | 91% | 1022.7 hPa | 0 mm | - | 11 W/m² | - |
| 1777643929 | -2.78° C | 92% | 1022.8 hPa | 0 mm | - | 10 W/m² | - |
| 1777643627 | -3.33° C | 92% | 1022.6 hPa | 0 mm | - | 13 W/m² | - |
| 1777643324 | -3.33° C | 93% | 1022.6 hPa | 0 mm | - | 6 W/m² | - |
| 1777643020 | -3.33° C | 93% | 1022.3 hPa | 0 mm | - | 6 W/m² | - |
| 1777642717 | -3.33° C | 94% | 1022.6 hPa | 0 mm | - | 5 W/m² | - |
| 1777642414 | -3.89° C | 95% | 1022.7 hPa | 0 mm | - | 5 W/m² | - |
| 1777642110 | -3.89° C | 96% | 1022.3 hPa | 0 mm | - | 4 W/m² | - |
| 1777641806 | -3.89° C | 96% | 1022.3 hPa | 0 mm | - | 4 W/m² | - |
* Rain latest hour (hover to see other rain measurements)
** Current wind speed in m/s (hover to see current wind gust speed)